RH
100 94 93 90 88 79 86 96 95 97 97 94 91 91 95 91 90 85 83 73 73 76 58 61 72 69 73 87 77 79 77 76 78 76 75 78 68 65 67 58 70 66 74 80 74 80 79 43 61 67 61 56 54 58
99 92 87 88 79 81 77 94 98 97 84 93 94 90 90 92 90 89 90 77 76 81 69 65 56 52 51 53 82 84 83 68 62 69 72 69 73 71 67 77 64 74 55 56 55 51 40 50 60 57 60 57 57 59
99 92 90 85 76 83 78 98 89 90 91 81 95 95 92 96 95 88 85 84 90 100 83 75 69 66 65 68 59 90 84 74 69 62 69 72 73 64 72 65 66 64 57 64 64 49 47 50 50 56 61 58 56 57
100 92 92 78 84 86 83 81 85 86 79 88 96 92 96 91 97 97 94 88 90 97 96 67 59 60 47 57 66 62 65 68 70 83 76 75 71 67 68 63 63 56 66 62 64 57 58 53 52 53 56 61 63 62
96 89 84 83 84 78 84 84 91 90 88 97 98 90 94 96 98 91 82 92 93 97 85 75 62 64 70 64 68 70 62 69 92 98 88 78 78 72 78 78 74 63 62 67 61 53 51 52 59 64 68 65 64 66
88 87 86 88 86 87 85 91 89 90 96 96 96 90 96 99 86 85 89 78 87 99 99 93 63 64 70 72 73 74 72 96 98 98 82 74 70 68 82 80 53 58 61 57 56 62 65 62 64 66 67 64 64 65
90 89 88 89 91 92 86 92 92 89 95 95 90 95 92 77 94 95 78 77 86 95 99 92 81 69 92 74 65 62 86 97 96 93 88 80 78 74 88 76 50 58 61 65 62 65 70 69 66 64 64 67 67 65
81 88 89 91 93 92 92 91 88 92 90 88 93 87 76 91 89 96 85 96 92 100 89 90 84 95 84 88 94 82 91 96 96 94 90 80 89 80 97 69 61 64 61 62 65 67 67 66 67 67 69 71 69 64
79 83 88 91 94 99 96 87 90 89 89 88 87 78 89 88 81 70 86 94 98 96 95 93 91 97 95 88 90 96 93 99 98 92 85 90 90 94 78 66 61 62 64 68 72 73 75 77 75 74 75 74 73 69
85 91 91 93 97 98 89 92 91 90 93 82 73 94 90 89 94 92 100 100 100 100 100 99 100 100 98 82 96 88 88 96 100 88 94 98 95 74 70 65 61 65 66 74 78 85 90 94 88 80 77 76 76 76
92 97 93 94 91 93 92 87 92 92 79 60 90 91 86 87 99 98 100 100 99 100 100 99 100 100 96 91 98 95 99 96 99 98 95 98 90 84 70 70 70 75 77 76 74 74 75 83 89 88 86 80 78 80
98 94 94 96 93 93 91 86 98 86 85 69 77 84 93 99 100 100 97 99 97 94 96 99 97 98 96 95 90 94 100 99 98 97 98 84 78 78 69 70 72 69 70 73 74 79 86 88 88 92 88 66 68 80
99 98 96 94 95 94 90 89 95 92 90 84 96 100 100 98 100 98 91 92 94 100 99 98 99 97 89 91 98 99 91 98 93 96 88 74 84 76 73 72 75 74 75 75 75 91 90 89 81 88 86 68 62 65
100 99 97 95 90 93 93 91 92 92 72 88 88 97 94 95 96 89 89 98 100 100 99 98 99 98 90 96 94 97 98 97 95 95 86 72 80 74 75 76 82 77 76 81 77 78 77 73 69 74 94 90 70 63
100 100 96 93 92 95 94 97 93 88 77 90 91 96 96 89 99 100 100 100 100 99 99 98 99 98 100 100 93 96 100 95 85 70 74 85 81 80 76 77 80 77 77 77 78 76 77 77 71 71 85 88 91 80
100 100 99 95 96 98 100 100 97 82 90 94 94 96 83 94 91 97 100 100 99 100 100 100 100 100 99 94 97 97 91 86 76 87 83 81 78 72 70 70 76 81 76 72 78 83 83 81 80 76 74 74 72 94
100 100 96 96 99 100 100 98 89 92 91 97 95 83 89 93 92 87 89 88 85 100 99 100 99 90 98 99 97 89 91 84 87 87 84 79 82 74 72 68 74 78 76 71 79 88 88 89 84 80 81 86 79 77
98 98 96 100 98 100 98 84 92 95 98 93 98 84 83 81 86 85 88 89 93 96 95 97 96 97 98 92 88 88 88 95 88 83 80 77 79 78 78 65 77 78 68 80 90 92 95 89 73 72 88 99 86 77
99 98 98 99 97 83 89 98 89 90 93 92 89 87 88 84 84 88 88 88 92 94 97 97 99 94 86 87 90 91 90 88 78 79 76 73 73 79 76 80 84 75 82 82 78 76 82 85 82 75 90 99 98 91
99 100 100 100 91 67 82 98 98 92 77 83 95 97 93 90 90 89 90 91 94 96 97 97 91 73 75 76 81 80 80 76 79 81 78 76 75 87 85 83 69 64 71 79 71 72 70 61 68 78 94 96 98 99
100 100 100 82 75 68 83 94 93 91 94 96 94 98 95 92 95 98 96 93 97 96 94 80 75 69 79 80 82 82 80 78 77 73 73 78 78 81 82 84 75 68 65 60 53 54 63 60 68 82 95 89 98 99
100 97 96 95 87 88 93 96 89 90 95 94 93 96 100 99 96 96 95 94 92 88 82 79 79 76 75 79 78 81 80 84 84 73 74 80 81 84 81 81 87 73 73 69 65 62 62 61 63 82 95 88 78 86
95 92 97 91 94 90 97 95 94 94 85 87 96 94 91 96 94 90 99 94 88 79 82 86 86 81 80 72 76 79 83 88 82 74 68 63 64 75 75 76 72 72 72 59 49 54 58 59 71 76 78 71 67 76
99 98 97 95 90 96 90 95 88 94 94 99 100 94 86 88 92 96 99 86 80 80 84 85 83 82 83 89 82 76 77 87 88 84 72 66 69 65 58 56 56 50 46 45 49 54 60 62 71 74 73 75 76 78
92 98 92 96 92 92 96 98 99 97 100 99 100 97 94 95 90 97 95 82 78 78 74 76 80 84 86 82 78 77 74 83 86 84 75 67 60 61 62 58 52 43 43 51 61 57 55 56 64 68 70 77 81 79
95 95 95 93 95 93 94 100 100 99 99 100 97 92 96 91 86 79 75 75 74 73 70 72 79 81 80 81 78 77 71 73 81 79 72 64 58 56 70 68 66 50 37 39 43 46 48 54 66 72 76 78 86 88
96 98 92 84 84 86 86 78 77 86 94 95 89 99 94 91 84 69 66 70 68 50 44 55 68 80 76 72 72 72 71 71 74 71 66 61 54 47 46 62 70 44 38 34 37 42 49 59 71 76 80 84 84 84
85 93 96 95 94 91 88 90 88 89 81 79 86 100 93 86 73 73 72 36 32 31 37 41 40 46 55 62 70 74 74 78 77 74 68 65 59 54 53 53 54 54 50 48 52 57 62 66 71 79 86 86 84 82
93 88 89 100 98 98 88 82 81 77 68 83 87 84 82 76 78 74 39 37 43 50 53 44 32 35 39 47 59 74 80 77 87 87 82 71 74 53 48 46 46 51 56 60 69 90 85 87 85 85 90 96 96 97
94 92 96 100 98 95 86 82 84 84 82 82 83 86 84 82 51 38 42 46 59 60 43 42 43 45 54 60 62 57 65 75 77 75 75 70 65 43 42 44 47 50 56 60 68 74 80 86 84 83 85 91 93 94
95 97 99 98 96 90 93 92 92 85 91 94 95 94 66 77 64 42 42 42 45 48 60 65 62 63 67 70 75 73 68 53 47 58 68 70 65 61 59 57 58 62 66 70 75 78 80 85 88 91 94 94 91 100
99 100 100 100 98 94 95 100 99 95 94 95 89 96 92 87 88 76 37 40 60 74 66 64 71 61 58 55 54 57 62 63 55 50 65 76 75 75 78 78 72 73 76 79 86 92 94 97 98 97 97 96 95 95
98 96 100 99 96 95 99 94 95 97 99 99 92 92 92 89 83 76 58 62 64 62 63 60 58 60 65 67 64 61 67 67 59 57 60 66 69 71 75 80 87 92 94 95 94 96 98 98 97 98 97 97 95 95
Wind_Speed
18 17 14 11 11 9 10 10 10 11 12 12 12 11 11 11 7 8 6 5 2 2 7 4 2 4 4 3 3 2 4 2 2 6 3 3 4 5 4 5 6 9 7 4 5 5 8 5 5 4 4 2 2 2
21 20 15 14 10 11 12 11 10 10 11 12 12 14 13 13 8 8 4 5 6 4 5 8 17 18 16 16 4 3 4 2 5 4 3 3 3 4 5 4 4 6 6 4 8 4 1 3 3 4 3 3 2 1
22 19 16 10 9 12 13 12 10 9 10 13 15 14 12 13 7 8 10 9 5 2 8 9 6 11 14 24 20 4 3 3 2 2 3 2 3 4 5 5 7 7 7 3 3 5 12 5 5 1 1 2 2 3
21 17 14 11 11 13 11 9 10 8 11 14 15 13 12 12 9 8 8 8 5 3 4 4 2 6 6 10 20 28 15 5 7 3 3 3 3 3 2 1 4 2 9 9 7 7 3 4 3 1 2 3 7 6
20 17 15 14 12 12 11 11 8 9 11 14 15 15 8 13 8 10 14 14 14 5 3 7 19 14 9 19 19 22 22 8 3 3 3 4 2 3 2 1 4 6 6 6 5 3 5 5 5 2 3 5 7 8
16 15 15 13 13 12 10 10 8 9 12 14 11 11 16 8 17 6 2 1 4 10 2 4 4 4 5 9 15 12 10 4 3 3 2 2 2 4 4 3 4 9 5 3 2 2 2 4 3 5 3 7 9 7
13 14 15 15 13 12 10 9 7 10 10 11 13 15 16 12 5 4 2 1 3 7 2 4 5 3 1 6 6 5 11 4 4 3 4 4 3 5 2 4 4 6 6 5 2 2 3 3 0 5 8 9 9 7
12 15 14 13 13 13 12 6 7 10 10 13 16 18 9 5 3 5 8 6 4 2 1 3 4 3 8 3 3 5 3 5 4 3 1 2 3 3 4 11 5 6 5 4 4 1 3 5 7 6 7 7 7 7
15 15 14 13 14 14 9 7 8 8 10 12 15 9 1 1 1 2 3 6 8 4 2 2 3 2 3 3 1 3 3 2 2 3 3 3 3 5 6 7 9 8 4 3 1 4 6 5 6 6 6 6 6 6
16 17 15 14 14 12 10 8 8 7 7 9 4 1 1 1 3 5 4 2 3 3 3 3 2 3 1 2 0 2 2 2 3 3 4 3 4 8 1 2 5 6 5 4 1 2 2 4 5 7 7 7 8 9
18 17 17 14 12 14 13 9 6 2 3 1 1 1 3 3 2 2 2 3 3 3 4 3 4 3 1 0 2 1 1 1 2 2 3 2 3 2 5 6 5 4 2 2 2 4 5 7 8 9 9 8 10 11
23 20 19 18 17 16 13 11 8 3 2 1 2 4 3 1 2 3 3 2 3 2 2 2 1 2 2 2 1 1 1 0 1 2 2 3 1 4 5 5 4 2 1 1 2 3 4 5 7 7 7 8 9 8
24 24 21 18 20 17 14 11 9 3 2 2 1 1 2 2 4 4 3 2 2 1 2 2 2 1 1 2 2 1 2 1 1 2 3 2 3 4 4 4 4 3 3 2 1 3 4 6 6 6 6 8 8 5
28 26 22 22 19 19 16 12 10 5 2 1 1 4 3 3 4 2 2 1 2 2 3 2 2 2 1 0 1 2 1 1 2 3 3 1 6 6 4 3 4 3 2 2 3 3 4 5 5 5 6 7 7 6
30 24 24 21 18 20 15 15 10 5 3 2 2 4 4 1 2 2 2 2 1 2 2 2 2 1 1 1 1 1 3 3 4 3 1 2 7 7 6 5 5 3 2 2 3 4 5 7 7 6 8 8 7 5
25 23 23 21 22 19 20 18 7 3 2 1 3 3 3 2 2 1 1 2 1 2 2 1 2 2 2 1 3 4 2 4 2 2 2 6 8 7 6 4 4 3 1 1 2 4 5 6 7 6 6 9 9 7
30 7 23 25 24 23 20 8 3 2 2 3 3 3 2 3 3 2 1 1 2 1 1 2 3 2 1 2 3 3 4 2 2 1 4 7 8 8 6 4 4 3 1 1 1 3 4 4 4 7 7 11 10 8
10 23 29 29 30 19 5 3 3 2 5 3 3 2 3 3 2 2 1 0 1 1 1 1 1 2 2 3 3 2 2 1 1 2 4 5 5 8 7 5 5 4 2 1 2 2 3 5 6 6 8 9 8 8
32 34 31 30 18 6 3 2 1 3 4 1 3 2 2 2 2 1 1 1 1 1 2 1 3 3 4 3 3 1 1 2 1 2 2 4 8 9 9 7 7 4 3 2 1 1 2 3 3 5 6 7 7 8
30 31 28 21 13 4 2 2 1 1 2 0 1 2 2 2 2 1 1 2 1 1 3 4 6 3 3 1 2 2 1 3 3 3 3 4 7 8 9 8 6 5 4 3 2 1 1 2 2 5 4 5 6 7
28 23 21 12 3 4 3 2 1 1 1 1 0 2 2 2 1 1 1 1 3 3 4 5 5 4 2 4 4 3 2 4 5 3 2 5 8 8 7 7 7 5 4 4 3 3 2 1 3 5 4 6 6 9
15 16 7 4 3 2 3 1 1 1 1 1 1 2 2 2 1 1 3 2 3 4 4 3 2 2 5 5 4 9 9 7 9 4 3 8 5 4 6 10 8 6 7 6 5 4 3 4 5 4 5 7 9 10
16 8 4 3 3 1 2 2 1 2 1 1 1 2 1 1 1 3 2 3 4 4 4 3 4 7 6 9 8 9 10 10 5 7 8 7 5 9 9 11 13 9 6 7 9 8 7 5 6 6 5 6 7 8
12 3 3 3 2 3 2 1 1 1 1 0 0 2 2 1 3 1 3 3 3 2 2 3 3 4 3 4 3 3 9 10 7 7 10 9 3 7 10 11 12 13 12 6 7 7 8 8 6 6 5 6 7 7
4 2 4 2 1 3 2 1 1 1 1 1 1 2 1 1 1 2 3 3 2 2 2 2 2 4 4 3 3 6 7 11 7 5 12 15 9 4 7 11 13 15 13 13 12 11 10 8 8 7 6 7 8 10
3 1 2 4 1 4 4 4 4 5 3 2 5 1 0 1 0 5 3 3 3 2 2 2 2 1 3 6 3 2 4 11 12 6 8 18 20 12 6 4 4 11 17 20 17 13 11 9 10 10 10 10 11 12
2 2 2 2 3 4 2 2 2 2 4 5 3 4 2 2 5 4 3 3 3 4 3 3 4 5 4 5 7 10 9 7 13 9 8 12 19 23 23 12 8 15 9 12 14 14 13 12 12 12 12 11 11 11
2 3 6 4 2 1 4 3 5 6 4 4 5 5 6 8 5 3 4 5 7 6 7 8 9 11 15 17 14 12 9 11 12 11 11 13 15 17 20 22 20 18 15 13 13 13 13 13 13 12 11 12 13 11
2 3 4 4 1 2 5 7 5 4 3 5 5 4 5 4 3 3 4 6 7 7 10 14 17 14 15 17 17 17 15 13 10 7 8 7 2 15 21 21 19 19 18 16 14 12 12 12 11 11 12 14 15 15
4 4 3 2 5 6 5 7 3 2 2 2 2 2 3 3 13 19 18 18 13 13 22 25 25 17 15 13 12 18 21 24 26 18 8 8 7 10 9 13 14 15 15 14 12 12 12 11 13 13 13 14 15 16
2 3 2 3 5 4 2 2 2 1 1 2 1 3 8 4 10 24 31 34 33 29 23 18 20 22 18 15 12 7 10 20 26 31 32 25 16 10 9 9 10 10 11 12 12 12 12 11 11 13 14 16 17 15
4 7 5 4 4 2 2 1 1 2 2 2 3 2 3 3 5 4 13 24 23 13 23 22 14 18 20 20 20 20 16 14 10 9 14 21 22 17 15 13 12 11 11 11 11 11 12 13 14 15 16 17 17 17
2 1 1 2 3 3 2 2 1 3 2 3 4 3 3 3 6 4 7 12 17 14 13 14 14 15 13 12 13 11 11 10 7 7 7 7 8 8 8 8 8 8 10 12 13 14 14 15 17 17 16 16 16 16
Wind_Direction
220 210 222 227 245 235 249 267 286 309 319 321 325 321 330 317 311 321 303 301 355 287 279 261 261 252 302 266 243 82 162 177 149 201 201 188 227 198 191 184 178 185 188 185 196 224 253 162 137 216 91 117 291 297
209 212 215 225 254 231 248 265 270 296 314 314 319 318 324 317 311 285 272 292 262 228 278 260 261 259 252 258 292 290 319 211 181 185 202 157 181 184 196 207 190 206 207 185 210 225 337 213 311 125 33 326 292 216
215 210 216 226 238 242 252 277 285 299 306 313 318 316 304 305 299 279 275 274 254 273 275 261 260 249 261 238 223 245 258 308 222 290 158 159 209 177 187 218 188 219 199 237 192 230 239 228 238 247 228 248 341 290
208 209 217 221 230 237 251 274 272 293 305 307 317 329 313 305 309 299 267 271 234 269 276 286 288 235 271 240 215 220 248 347 327 241 210 173 204 203 201 6 234 197 162 214 241 255 250 269 218 123 154 319 314 298
203 213 210 212 227 236 246 272 270 280 302 307 309 326 324 321 312 303 291 270 242 214 280 289 299 285 303 233 217 218 230 245 295 254 213 184 131 172 128 237 235 190 196 201 230 213 230 150 129 10 300 317 316 305
215 209 213 213 232 238 259 260 278 290 307 306 317 318 314 322 306 300 285 326 224 222 273 286 304 264 323 190 184 183 209 189 242 270 187 184 164 199 189 225 239 207 218 239 214 164 253 302 311 148 339 317 305 288
219 225 224 225 240 237 256 254 264 293 288 317 322 310 310 310 269 214 276 207 185 187 257 293 293 258 180 144 183 202 184 205 213 241 206 164 187 193 221 236 199 199 205 180 153 164 242 212 199 299 303 300 288 279
227 226 230 235 239 227 246 231 276 281 291 301 317 316 316 296 234 255 257 222 195 222 243 276 272 279 186 161 147 156 157 200 238 160 241 161 135 206 247 234 207 170 175 208 192 83 308 306 293 286 302 299 270 258
218 224 232 235 224 236 211 240 272 273 289 298 310 309 270 257 226 280 268 203 201 232 280 258 284 320 178 162 217 152 228 166 248 218 171 163 173 221 231 203 190 175 190 151 177 294 282 263 288 297 304 297 263 261
223 225 227 220 220 215 210 232 259 278 297 299 320 318 259 316 305 305 135 197 203 192 215 257 267 265 286 145 137 138 126 175 166 199 132 215 243 242 189 125 153 153 156 151 228 277 289 287 303 313 303 291 281 269
226 226 213 213 222 200 205 228 222 246 307 36 51 267 302 303 276 234 244 223 182 225 202 237 240 285 22 47 105 10 146 144 196 153 221 230 259 149 134 103 92 102 159 185 247 276 276 281 297 304 303 299 287 270
223 219 212 209 207 200 204 201 199 183 198 198 271 290 293 271 232 254 238 208 229 267 183 251 300 294 315 327 103 160 133 233 213 118 230 252 120 128 138 119 108 117 99 32 292 291 296 295 299 295 305 312 307 285
225 216 216 205 199 197 196 198 187 176 198 130 87 253 214 213 240 229 218 206 246 326 7 322 301 303 295 18 75 99 218 166 129 214 238 242 134 136 127 137 118 81 77 91 88 348 327 311 320 330 330 342 345 349
237 210 205 190 195 195 187 186 169 177 133 110 196 252 213 208 238 235 289 329 357 311 328 303 287 323 334 13 168 186 132 165 234 235 244 179 173 152 136 138 141 99 65 60 39 16 356 345 344 358 360 359 2 14
208 199 188 185 193 190 187 174 168 159 112 177 188 235 230 320 276 297 303 300 317 303 309 311 294 282 287 216 213 94 194 234 224 238 238 168 155 150 148 136 119 109 74 48 22 16 6 1 4 12 13 8 9 6
191 179 182 186 180 176 166 155 135 123 67 168 233 248 238 287 266 257 259 281 311 316 289 242 278 251 246 225 198 216 223 233 245 217 163 147 157 158 152 149 149 149 128 33 20 10 3 7 3 354 1 14 5 356
170 161 179 175 169 160 157 140 132 92 220 214 244 242 259 287 254 259 268 278 332 297 303 309 235 232 351 215 225 201 218 232 230 199 169 167 162 166 155 147 155 166 172 10 25 32 17 6 14 22 14 359 359 1
148 158 162 160 159 141 113 108 99 162 241 222 237 195 208 232 243 260 257 270 266 221 245 268 304 260 238 233 230 247 242 308 274 241 172 164 147 155 162 159 161 163 150 97 60 25 18 18 22 9 350 349 349 1
151 153 160 162 154 121 123 117 134 221 222 221 263 261 258 269 266 269 244 241 345 9 304 238 243 216 231 225 251 274 227 222 223 189 181 174 172 171 169 169 167 170 166 158 65 25 353 347 340 343 341 347 344 346
151 153 156 156 161 116 95 126 131 204 224 193 305 270 268 258 316 301 266 208 203 226 226 224 223 225 215 243 221 265 259 154 149 173 206 206 195 180 187 180 187 181 184 199 222 234 312 344 320 341 340 324 334 334
134 140 146 145 102 78 82 139 135 212 277 237 343 300 299 346 356 360 290 302 203 219 238 232 245 274 291 274 272 264 227 179 202 213 213 197 191 192 185 196 190 190 204 206 223 230 229 268 319 333 326 321 317 315
126 142 130 144 97 83 90 107 103 40 207 316 323 345 310 319 331 2 323 230 238 238 226 228 240 269 274 267 244 241 254 239 225 219 149 137 150 178 203 202 184 207 214 224 227 246 269 287 298 300 300 314 324 327
128 121 105 115 99 119 127 57 144 346 112 329 356 356 281 297 253 308 262 238 260 240 237 262 262 258 259 279 275 261 238 217 209 207 202 202 200 200 201 198 202 198 210 233 230 234 243 260 270 270 286 309 321 321
117 112 132 135 129 138 95 50 356 85 50 160 42 291 252 254 329 8 262 261 253 276 237 239 248 275 254 248 256 257 256 230 230 227 209 184 183 208 205 203 204 219 225 224 223 239 250 260 250 249 274 297 314 320
130 178 129 137 46 112 128 147 80 131 258 208 173 276 242 321 275 243 241 270 258 265 273 298 273 237 249 266 268 265 260 215 201 212 215 209 206 186 213 227 232 236 233 229 237 245 259 260 252 252 274 286 293 299
128 183 157 152 140 161 170 161 200 202 177 192 226 261 16 130 315 241 227 228 235 235 240 224 207 267 258 231 258 248 259 222 211 214 233 214 212 203 198 196 221 252 232 234 242 244 253 256 242 242 258 271 273 280
164 169 106 59 105 112 88 69 90 160 183 205 194 164 140 197 241 245 259 217 218 219 254 279 258 239 259 286 281 268 256 228 204 226 236 228 229 231 228 215 219 247 238 230 232 237 246 246 236 238 258 271 274 282
106 171 171 194 170 182 149 163 180 208 218 184 133 190 198 201 233 228 214 212 224 253 272 277 281 273 269 270 272 274 273 243 230 241 258 257 244 238 238 241 245 250 246 243 241 242 242 240 244 255 262 273 285 291
160 154 144 184 157 195 209 193 212 223 183 164 181 217 232 219 245 239 242 236 255 268 277 285 283 277 268 266 259 250 240 226 187 210 231 242 257 245 238 238 237 237 239 242 243 245 251 249 255 269 280 283 287 287
223 158 150 156 166 214 232 187 215 218 208 191 232 295 271 254 253 267 261 259 248 242 260 267 270 255 245 236 249 254 244 234 228 221 229 234 235 249 225 220 224 226 226 224 222 225 236 253 261 265 269 274 278 281
114 107 127 183 223 238 242 318 315 316 348 252 265 227 261 293 289 268 257 257 256 258 256 255 257 252 239 238 229 247 261 257 248 244 238 241 249 239 227 222 210 212 221 232 243 251 259 261 266 272 275 278 281 278
182 197 181 218 255 280 7 160 220 217 244 231 243 199 305 304 263 258 253 245 230 235 242 244 241 253 256 260 257 254 252 256 262 253 238 234 241 243 236 233 236 230 234 242 249 256 257 260 267 272 271 274 279 282
42 94 55 332 308 278 219 139 336 297 268 252 252 207 216 220 248 275 283 246 242 253 256 257 256 254 254 250 247 245 227 222 220 220 211 205 206 215 218 222 229 240 254 258 262 261 259 265 269 269 269 272 276 280